map of SLE home
SLE - Airport
Location
City:  Salem, Oregon, United States
Name:McNary Field
ICAO:KSLE
IATA:SLE
FAA LID:SLE

Details
Type:Airport (Part 139 Class IV)
Use:Public/Civil
Latitude:4454'34"N (44.909528)
Longitude:12300'09"W (-123.002499)
Datum:WGS 1984
Elevation:213 ft (65 m)
Variation:15.10E (WMM2015 magnetic declination)
-0.13 annual change
Runways:2
Longest:5811 × 150 ft (1771 × 45.5 m), paved

Time
Time Zone:UTC-8 (DST-7)
Local Time:

Weather
METAR:KSLE 180556Z AUTO 00000KT 10SM CLR 08/03 A3009 RMK AO2 SLP189 T00830028 10250 20083 53010
TAF:KSLE 180522Z 1806/1906 VRB02KT P6SM SKC

Related Locations
Nearby:
Farthest:FTU: 10951 mi / 17624 km
Tolagnaro [Maurillac Airport (Fort Dauphin Airport)], MG

Find:

   beyond  
but within

Other Information
Maps:
Delays:
NOTAMs:
Links:
Sources:

  
  • flag of United States
  • flag of Oregon
  

Airport Diagram

Airport diagram for SLE

Airport diagram PDF

Sectional Chart

Flight Planning
at skyvector.com

Satellite Image

Google Maps Satellite view

 

Copyright © 2004-2018 Karl L. Swartz. All rights reserved.
The Great Circle Mapper name and logo are trademarks of the Great Circle Mapper.
All other trademarks mentioned herein belong to their respective owners.
Please see credits for attibutions and further copyright information.

  Follow gcmap on Facebook Follow gcmap on Twitter Follow gcmap on Google+ GCmap on LinkedIn

hCard Microformat

Geo Microformat